Weather History for KMWC - November, 2012

Change the Weather History Date:

Friday, November 23, 2012

  Actual Average Record
Temperature  
Mean Temperature 34 °F -  
Max Temperature 41 °F 41 °F 60 °F (1963)
Min Temperature 26 °F 28 °F 4 °F (1950)
Degree Days  
Heating Degree Days 32    
Moisture  
Dew Point 20 °F    
Average Humidity 63    
Maximum Humidity 70    
Minimum Humidity 55    
Precipitation  
Precipitation 0.00 in - - ()
Sea Level Pressure  
Sea Level Pressure 29.99 in    
Wind  
Wind Speed 21 mph (WNW)    
Max Wind Speed 28 mph    
Max Gust Speed 38 mph    
Visibility 10 miles    
Events Snow    
Averages and records for this station are not official NWS values.
T = Trace of Precipitation, MM = Missing Value Source: NWS Daily Summary

Daily Weather History Graph

Daily Weather History Graph

Search for Another Location

Airport or City:

Trip Planner

Search our weather history database for the weather conditions in past years. The results will help you decide how hot, cold, wet, or windy it might be!

Date:

Astronomy

Nov. 23, 2012 Rise Set
Actual Time 6:55 AM CST 4:21 PM CST
Civil Twilight 6:24 AM CST 4:52 PM CST
Nautical Twilight 5:49 AM CST 5:27 PM CST
Astronomical Twilight 5:15 AM CST 6:01 PM CST
Moon 1:41 PM CST (11/23) 2:07 AM CST (11/23)
Length of Visible Light 10h 28m
Length of Day
9h 26m
Waxing Gibbous, 80% of the Moon is Illuminated
Nov 23
Waxing Gibbous
Nov 28
Full
Dec 6
Last Quarter
Dec 13
New
Dec 19
First Quarter

Hourly Weather History & Observations

Time (CST) Temp. Windchill Dew Point Humidity Pressure Visibility Wind Dir Wind Speed Gust Speed Precip Events Conditions
12:15 AM 41.0 °F 30.2 °F 30.2 °F 65% 29.79 in 10.0 mi West 27.6 mph 35.7 mph N/A   Scattered Clouds
12:35 AM 39.2 °F 29.6 °F 30.2 °F 70% 29.79 in 10.0 mi West 19.6 mph 24.2 mph N/A   Scattered Clouds
12:55 AM 39.2 °F 29.3 °F 28.4 °F 65% 29.80 in 10.0 mi West 20.7 mph 29.9 mph N/A   Overcast
1:15 AM 37.4 °F 27.2 °F 28.4 °F 70% 29.81 in 10.0 mi West 19.6 mph 32.2 mph N/A   Mostly Cloudy
1:35 AM 37.4 °F 26.9 °F 28.4 °F 70% 29.81 in 10.0 mi West 20.7 mph 31.1 mph N/A   Overcast
1:55 AM 37.4 °F 27.8 °F 26.6 °F 65% 29.82 in 10.0 mi West 17.3 mph 33.4 mph N/A   Overcast
2:15 AM 35.6 °F 26.6 °F 26.6 °F 70% 29.82 in 10.0 mi West 13.8 mph 20.7 mph N/A   Overcast
2:35 AM 37.4 °F 30.3 °F 28.4 °F 70% 29.81 in 10.0 mi West 10.4 mph 24.2 mph N/A   Overcast
2:55 AM 35.6 °F 24.2 °F 26.6 °F 70% 29.82 in 10.0 mi West 21.9 mph 33.4 mph N/A   Overcast
3:15 AM 35.6 °F 24.0 °F 26.6 °F 70% 29.82 in 10.0 mi West 23.0 mph 32.2 mph N/A   Overcast
3:35 AM 35.6 °F 26.2 °F 26.6 °F 70% 29.81 in 10.0 mi West 15.0 mph 18.4 mph N/A   Overcast
3:55 AM 35.6 °F 24.8 °F 24.8 °F 65% 29.81 in 10.0 mi WNW 19.6 mph 27.6 mph N/A   Overcast
4:15 AM 35.6 °F 24.0 °F 24.8 °F 65% 29.82 in 10.0 mi West 23.0 mph 31.1 mph N/A   Overcast
4:35 AM 35.6 °F 25.2 °F 24.8 °F 65% 29.81 in 10.0 mi West 18.4 mph 28.8 mph N/A   Overcast
4:55 AM 35.6 °F 25.9 °F 24.8 °F 65% 29.82 in 10.0 mi West 16.1 mph 25.3 mph N/A   Overcast
5:15 AM 35.6 °F 23.7 °F 23.0 °F 60% 29.82 in 10.0 mi West 24.2 mph 29.9 mph N/A   Overcast
5:35 AM 33.8 °F 20.5 °F 23.0 °F 65% 29.82 in 10.0 mi West 27.6 mph 34.5 mph N/A   Overcast
5:55 AM 33.8 °F 21.3 °F 21.2 °F 60% 29.83 in 10.0 mi West 24.2 mph 38.0 mph N/A   Overcast
6:45 AM 30.2 °F 17.8 °F 19.4 °F 64% 29.86 in 10.0 mi West 19.6 mph 34.5 mph N/A   Overcast
7:45 AM 28.4 °F 14.4 °F 17.6 °F 64% 29.90 in 10.0 mi WNW 23.0 mph 34.5 mph N/A   Overcast
8:45 AM 28.4 °F 14.4 °F 15.8 °F 59% 29.94 in 10.0 mi West 23.0 mph 31.1 mph N/A   Overcast
9:45 AM 30.2 °F 17.4 °F 15.8 °F 55% 29.96 in 10.0 mi WNW 20.7 mph 32.2 mph N/A   Overcast
10:45 AM 30.2 °F 16.5 °F 15.8 °F 55% 29.98 in 10.0 mi WNW 24.2 mph 34.5 mph N/A   Mostly Cloudy
11:45 AM 30.2 °F 16.8 °F 15.8 °F 55% 29.99 in 10.0 mi WNW 23.0 mph 32.2 mph N/A   Overcast
12:45 PM 30.2 °F 16.8 °F 17.6 °F 60% 30.01 in 10.0 mi West 23.0 mph 31.1 mph N/A Snow Light Snow
1:45 PM 30.2 °F 17.1 °F 17.6 °F 60% 30.03 in 10.0 mi WNW 21.9 mph 31.1 mph N/A   Overcast
2:45 PM 28.4 °F 14.7 °F 17.6 °F 64% 30.07 in 10.0 mi WNW 21.9 mph 27.6 mph N/A   Overcast
4:45 PM 28.4 °F 13.8 °F 17.6 °F 64% 30.12 in 10.0 mi WNW 25.3 mph 32.2 mph N/A   Overcast
5:45 PM 28.4 °F 13.8 °F 15.8 °F 59% 30.14 in 10.0 mi NW 25.3 mph 31.1 mph N/A   Mostly Cloudy
6:45 PM 28.4 °F 16.6 °F 15.8 °F 59% 30.17 in 10.0 mi NW 16.1 mph 27.6 mph N/A   Overcast
7:45 PM 28.4 °F 16.6 °F 15.8 °F 59% 30.17 in 10.0 mi WNW 16.1 mph 25.3 mph N/A   Overcast
8:15 PM 28.4 °F 15.4 °F 15.8 °F 59% 30.18 in 10.0 mi NW 19.6 mph 29.9 mph N/A   Overcast
8:35 PM 28.4 °F 14.4 °F 15.8 °F 59% 30.18 in 10.0 mi NW 23.0 mph 26.5 mph N/A   Overcast
8:45 PM 26.6 °F 13.1 °F 15.8 °F 64% 30.18 in 10.0 mi NW 19.6 mph 26.5 mph N/A   Overcast
8:55 PM 28.4 °F 16.2 °F 15.8 °F 59% 30.18 in 10.0 mi NW 17.3 mph 29.9 mph N/A   Overcast
9:15 PM 28.4 °F 14.7 °F 15.8 °F 59% 30.18 in 10.0 mi NW 21.9 mph 26.5 mph N/A   Overcast
9:35 PM 28.4 °F 16.2 °F 15.8 °F 59% 30.18 in 10.0 mi NW 17.3 mph 26.5 mph N/A   Overcast
9:55 PM 28.4 °F 16.6 °F 15.8 °F 59% 30.18 in 10.0 mi NW 16.1 mph 28.8 mph N/A   Overcast
10:15 PM 26.6 °F 13.1 °F 15.8 °F 64% 30.19 in 10.0 mi NW 19.6 mph 27.6 mph N/A   Overcast
10:35 PM 26.6 °F 14.7 °F 15.8 °F 64% 30.18 in 10.0 mi NW 15.0 mph 18.4 mph N/A   Overcast
10:55 PM 26.6 °F 14.7 °F 15.8 °F 64% 30.18 in 10.0 mi WNW 15.0 mph 20.7 mph N/A   Overcast
11:15 PM 26.6 °F 15.2 °F 15.8 °F 64% 30.19 in 10.0 mi NW 13.8 mph - N/A   Overcast
11:35 PM 26.6 °F 15.2 °F 15.8 °F 64% 30.19 in 10.0 mi NW 13.8 mph 18.4 mph N/A   Overcast
11:55 PM 26.6 °F 13.8 °F 15.8 °F 64% 30.19 in 10.0 mi NW 17.3 mph 21.9 mph N/A   Overcast